Location: Moscow
(55.7500°N, 37.5830°E)
Time: 04:44:21
(UTC+03:00)

Vanguard 1 - Pass Details

Date: 04 December 2021
Orbit: 652 x 3830 km, 34.2° (Epoch: 21 January)

Event Time Altitude Azimuth Distance (km) Brightness Sun altitude
Rises 23:18:33 0° 209° (SSW) 7,195 - -54.7°
Reaches altitude 10° 23:24:08 10° 199° (SSW) 6,508 - -55.0°
Maximum altitude 23:41:08 29° 150° (SSE) 5,449 - -55.8°
Exits shadow 23:57:50 10° 101° (E) 6,448 14.0 -56.3°
Drops below altitude 10° 23:57:51 10° 101° (E) 6,449 14.0 -56.3°
Sets 00:03:16 0° 92° (E) 7,130 14.4 -56.5°
